Weather History for KSOW - August, 2012

Change the Weather History Date:

Thursday, August 2, 2012

  Actual Average (KINW) Record (KINW)
Temperature  
Mean Temperature 68 °F 78 °F  
Max Temperature 82 °F 93 °F 103 °F (1979)
Min Temperature 55 °F 63 °F 48 °F (1921)
Degree Days  
Heating Degree Days 0 0  
Month to date heating degree days 0  
Since 1 July heating degree days 0  
Cooling Degree Days 4 13  
Month to date cooling degree days 26  
Year to date cooling degree days 743  
Growing Degree Days 18 (Base 50)    
Moisture  
Dew Point 48 °F    
Average Humidity 48    
Maximum Humidity 82    
Minimum Humidity 23    
Precipitation  
Precipitation 0.00 in 0.04 in 0.90 in (1920)
Month to date precipitation 0.08  
Year to date precipitation 3.41  
Sea Level Pressure  
Sea Level Pressure 30.28 in    
Wind  
Wind Speed 5 mph (SW)    
Max Wind Speed 13 mph    
Max Gust Speed 16 mph    
Visibility 10 miles    
Events      
T = Trace of Precipitation, MM = Missing Value Source: NWS Daily Summary

Daily Weather History Graph

Daily Weather History Graph

Search for Another Location

Airport or City:

Trip Planner

Search our weather history database for the weather conditions in past years. The results will help you decide how hot, cold, wet, or windy it might be!

Date:

Astronomy

Aug. 02, 2012 Rise Set
Actual Time 5:32 AM MST 7:19 PM MST
Civil Twilight 5:04 AM MST 7:47 PM MST
Nautical Twilight 4:31 AM MST 8:20 PM MST
Astronomical Twilight 3:56 AM MST 8:55 PM MST
Moon 7:34 PM MST (8/2) 6:08 AM MST (8/2)
Length of Visible Light 14h 42m
Length of Day
13h 47m
Waxing Gibbous, 99% of the Moon is Illuminated
Aug 2
Waxing Gibbous
Aug 9
Last Quarter
Aug 17
New
Aug 24
First Quarter
Aug 31
Full

Hourly Weather History & Observations

Time (MST) Temp. Dew Point Humidity Pressure Visibility Wind Dir Wind Speed Gust Speed Precip Events Conditions
12:15 AM 62.6 °F 50.0 °F 63% 30.33 in 10.0 mi South 8.1 mph - N/A   Clear
12:35 AM 62.6 °F 50.0 °F 63% 30.33 in 10.0 mi South 8.1 mph - N/A   Clear
12:55 AM 62.6 °F 50.0 °F 63% 30.33 in 10.0 mi South 6.9 mph - N/A   Clear
1:15 AM 62.6 °F 51.8 °F 68% 30.33 in 10.0 mi Calm Calm - N/A   Mostly Cloudy
1:35 AM 62.6 °F 51.8 °F 68% 30.32 in 10.0 mi SSW 4.6 mph - N/A   Mostly Cloudy
2:35 AM 59.0 °F 51.8 °F 77% 30.31 in 10.0 mi SW 3.5 mph - N/A   Clear
2:55 AM 59.0 °F 51.8 °F 77% 30.31 in 10.0 mi Calm Calm - N/A   Clear
3:15 AM 59.0 °F 51.8 °F 77% 30.31 in 10.0 mi Calm Calm - N/A   Clear
3:35 AM 57.2 °F 50.0 °F 77% 30.30 in 10.0 mi South 4.6 mph - N/A   Clear
3:55 AM 57.2 °F 50.0 °F 77% 30.30 in 10.0 mi South 4.6 mph - N/A   Clear
4:15 AM 57.2 °F 50.0 °F 77% 30.30 in 10.0 mi SSE 3.5 mph - N/A   Clear
4:35 AM 57.2 °F 50.0 °F 77% 30.31 in 10.0 mi SW 3.5 mph - N/A   Clear
4:55 AM 57.2 °F 50.0 °F 77% 30.31 in 10.0 mi South 4.6 mph - N/A   Clear
5:15 AM 55.4 °F 50.0 °F 82% 30.31 in 10.0 mi South 3.5 mph - N/A   Clear
5:35 AM 57.2 °F 50.0 °F 77% 30.31 in 10.0 mi Calm Calm - N/A   Clear
5:55 AM 55.4 °F 50.0 °F 82% 30.32 in 10.0 mi SE 4.6 mph - N/A   Clear
6:15 AM 57.2 °F 50.0 °F 77% 30.33 in 10.0 mi SSW 3.5 mph - N/A   Clear
6:35 AM 59.0 °F 51.8 °F 77% 30.33 in 10.0 mi Calm Calm - N/A   Clear
6:55 AM 62.6 °F 53.6 °F 72% 30.33 in 8.0 mi Calm Calm - N/A   Clear
7:15 AM 66.2 °F 53.6 °F 64% 30.33 in 10.0 mi Calm Calm - N/A   Clear
7:35 AM 66.2 °F 51.8 °F 60% 30.34 in 10.0 mi NW 3.5 mph - N/A   Clear
7:55 AM 68.0 °F 51.8 °F 56% 30.34 in 10.0 mi WNW 3.5 mph - N/A   Clear
8:15 AM 69.8 °F 50.0 °F 49% 30.35 in 10.0 mi Calm Calm - N/A   Clear
8:35 AM 69.8 °F 51.8 °F 53% 30.34 in 10.0 mi WSW 3.5 mph - N/A   Clear
8:55 AM 71.6 °F 51.8 °F 50% 30.34 in 10.0 mi Calm Calm - N/A   Clear
9:15 AM 73.4 °F 51.8 °F 47% 30.34 in 10.0 mi WSW 4.6 mph - N/A   Clear
9:35 AM 73.4 °F 51.8 °F 47% 30.34 in 10.0 mi Calm Calm - N/A   Clear
9:55 AM 73.4 °F 51.8 °F 47% 30.34 in 10.0 mi West 4.6 mph - N/A   Clear
10:15 AM 75.2 °F 50.0 °F 41% 30.34 in 10.0 mi West 6.9 mph - N/A   Clear
10:35 AM 75.2 °F 48.2 °F 38% 30.33 in 10.0 mi SSW 5.8 mph - N/A   Clear
10:55 AM 77.0 °F 46.4 °F 34% 30.33 in 10.0 mi SW 9.2 mph - N/A   Clear
11:15 AM 77.0 °F 46.4 °F 34% 30.32 in 10.0 mi WSW 8.1 mph - N/A   Clear
11:35 AM 77.0 °F 46.4 °F 34% 30.31 in 10.0 mi WSW 9.2 mph - N/A   Clear
11:55 AM 78.8 °F 46.4 °F 32% 30.31 in 10.0 mi West 6.9 mph - N/A   Clear
12:15 PM 78.8 °F 46.4 °F 32% 30.31 in 10.0 mi WSW 9.2 mph - N/A   Scattered Clouds
12:35 PM 77.0 °F 46.4 °F 34% 30.30 in 10.0 mi West 11.5 mph - N/A   Scattered Clouds
12:55 PM 78.8 °F 46.4 °F 32% 30.30 in 10.0 mi WNW 9.2 mph - N/A   Scattered Clouds
1:15 PM 80.6 °F 44.6 °F 28% 30.29 in 10.0 mi SW 5.8 mph - N/A   Partly Cloudy
1:35 PM 80.6 °F 44.6 °F 28% 30.29 in 10.0 mi WSW 10.4 mph - N/A   Clear
1:55 PM 80.6 °F 42.8 °F 26% 30.28 in 10.0 mi West 9.2 mph - N/A   Clear
2:15 PM 80.6 °F 42.8 °F 26% 30.27 in 10.0 mi WSW 12.7 mph - N/A   Clear
2:35 PM 82.4 °F 44.6 °F 26% 30.27 in 10.0 mi West 9.2 mph - N/A   Clear
2:55 PM 82.4 °F 44.6 °F 26% 30.25 in 10.0 mi South 4.6 mph - N/A   Clear
3:15 PM 82.4 °F 42.8 °F 25% 30.25 in 10.0 mi SSW 4.6 mph - N/A   Clear
3:35 PM 82.4 °F 44.6 °F 26% 30.24 in 10.0 mi WSW 9.2 mph - N/A   Clear
3:55 PM 80.6 °F 41.0 °F 24% 30.23 in 10.0 mi West 3.5 mph - N/A   Clear
4:15 PM 82.4 °F 41.0 °F 23% 30.23 in 10.0 mi West 8.1 mph - N/A   Clear
4:35 PM 82.4 °F 41.0 °F 23% 30.22 in 10.0 mi WSW 5.8 mph - N/A   Clear
4:55 PM 82.4 °F 42.8 °F 25% 30.22 in 10.0 mi SW 11.5 mph 16.1 mph N/A   Clear
5:15 PM 82.4 °F 41.0 °F 23% 30.22 in 10.0 mi SW 9.2 mph - N/A   Clear
5:35 PM 80.6 °F 44.6 °F 28% 30.21 in 10.0 mi SW 6.9 mph - N/A   Clear
5:55 PM 80.6 °F 44.6 °F 28% 30.21 in 10.0 mi SW 10.4 mph - N/A   Clear
6:15 PM 78.8 °F 44.6 °F 30% 30.21 in 10.0 mi SW 6.9 mph - N/A   Clear
6:35 PM 77.0 °F 44.6 °F 32% 30.21 in 10.0 mi WSW 9.2 mph - N/A   Clear
6:55 PM 77.0 °F 46.4 °F 34% 30.21 in 10.0 mi SW 6.9 mph - N/A   Clear
7:15 PM 75.2 °F 46.4 °F 36% 30.21 in 10.0 mi SW 8.1 mph - N/A   Clear
7:35 PM 73.4 °F 46.4 °F 38% 30.22 in 10.0 mi SW 6.9 mph - N/A   Clear
7:55 PM 71.6 °F 48.2 °F 43% 30.23 in 10.0 mi SW 5.8 mph - N/A   Clear
8:15 PM 71.6 °F 48.2 °F 43% 30.23 in 10.0 mi SSW 5.8 mph - N/A   Clear
8:35 PM 69.8 °F 48.2 °F 46% 30.24 in 10.0 mi South 5.8 mph - N/A   Clear
8:55 PM 68.0 °F 48.2 °F 49% 30.24 in 10.0 mi South 8.1 mph - N/A   Clear
9:15 PM 68.0 °F 48.2 °F 49% 30.25 in 10.0 mi SSW 8.1 mph - N/A   Clear
9:35 PM 68.0 °F 48.2 °F 49% 30.26 in 10.0 mi SSW 8.1 mph - N/A   Clear
9:55 PM 68.0 °F 48.2 °F 49% 30.26 in 10.0 mi South 6.9 mph - N/A   Scattered Clouds
10:15 PM 68.0 °F 48.2 °F 49% 30.26 in 10.0 mi South 6.9 mph - N/A   Scattered Clouds
10:35 PM 68.0 °F 48.2 °F 49% 30.26 in 10.0 mi South 6.9 mph - N/A   Clear
10:55 PM 66.2 °F 48.2 °F 52% 30.26 in 10.0 mi South 6.9 mph - N/A   Clear
11:15 PM 66.2 °F 46.4 °F 49% 30.25 in 10.0 mi South 5.8 mph - N/A   Partly Cloudy
11:35 PM 66.2 °F 46.4 °F 49% 30.25 in 10.0 mi South 6.9 mph - N/A   Partly Cloudy
11:55 PM 66.2 °F 46.4 °F 49% 30.25 in 10.0 mi South 6.9 mph - N/A   Scattered Clouds